Weather History for KAKO - December, 2011

Change the Weather History Date:

Thursday, December 8, 2011

  Actual Average Record
Temperature  
Mean Temperature 28 °F 29 °F  
Max Temperature 36 °F 40 °F 69 °F (1939)
Min Temperature 20 °F 17 °F -16 °F (1978)
Degree Days  
Heating Degree Days 37    
Month to date heating degree days 365  
Cooling Degree Days 0    
Month to date cooling degree days 0  
Moisture  
Dew Point 22 °F    
Average Humidity 80    
Maximum Humidity 100    
Minimum Humidity 59    
Precipitation  
Precipitation 0.00 in 0.01 in 1.02 in (1987)
Month to date precipitation T 0.14  
Year to date precipitation 16.48  
Sea Level Pressure  
Sea Level Pressure 30.15 in    
Wind  
Wind Speed 6 mph (ENE)    
Max Wind Speed 15 mph    
Max Gust Speed 17 mph    
Visibility 7 miles    
Events      
T = Trace of Precipitation, MM = Missing Value Source: NWS Daily Summary

Daily Weather History Graph

Daily Weather History Graph

Search for Another Location

Airport or City:

Trip Planner

Search our weather history database for the weather conditions in past years. The results will help you decide how hot, cold, wet, or windy it might be!

Date:

Astronomy

Dec. 08, 2011 Rise Set
Actual Time 7:02 AM MST 4:26 PM MST
Civil Twilight 6:31 AM MST 4:57 PM MST
Nautical Twilight 5:58 AM MST 5:31 PM MST
Astronomical Twilight 5:25 AM MST 6:04 PM MST
Moon 3:07 PM MST (12/8) 5:16 AM MST (12/8)
Length of Visible Light 10h 25m
Length of Day
9h 24m
Waxing Gibbous, 97% of the Moon is Illuminated
Dec 8
Waxing Gibbous
Dec 10
Full
Dec 17
Last Quarter
Dec 24
New
Dec 31
First Quarter

Hourly Weather History & Observations

Time (MST) Temp. Windchill Dew Point Humidity Pressure Visibility Wind Dir Wind Speed Gust Speed Precip Events Conditions
12:53 AM 19.9 °F 10.1 °F 12.9 °F 74% 30.13 in 10.0 mi NNE 8.1 mph - N/A   Clear
1:53 AM 21.9 °F 14.5 °F 15.1 °F 75% 30.13 in 10.0 mi North 5.8 mph - N/A   Clear
2:53 AM 27.0 °F 19.5 °F 17.1 °F 66% 30.11 in 10.0 mi NNE 6.9 mph - N/A   Overcast
3:53 AM 28.0 °F 20.0 °F 18.0 °F 66% 30.09 in 10.0 mi NE 8.1 mph - N/A   Mostly Cloudy
5:53 AM 26.1 °F - 19.0 °F 75% 30.15 in 10.0 mi Calm Calm - N/A   Overcast
6:53 AM 23.0 °F 15.8 °F 18.0 °F 81% 30.18 in 10.0 mi WNW 5.8 mph - N/A   Overcast
7:53 AM 23.0 °F 17.0 °F 19.0 °F 85% 30.17 in 10.0 mi NNW 4.6 mph - N/A   Overcast
8:53 AM 26.1 °F 20.5 °F 19.9 °F 78% 30.18 in 10.0 mi North 4.6 mph - N/A   Mostly Cloudy
9:53 AM 27.0 °F 20.5 °F 21.0 °F 78% 30.19 in 10.0 mi North 5.8 mph - N/A   Clear
10:53 AM 30.0 °F 24.1 °F 21.9 °F 72% 30.18 in 10.0 mi NNW 5.8 mph - N/A   Clear
11:53 AM 30.9 °F 22.2 °F 21.9 °F 69% 30.18 in 10.0 mi NNW 10.4 mph - N/A   Partly Cloudy
12:53 PM 33.1 °F 26.1 °F 23.0 °F 66% 30.17 in 10.0 mi North 8.1 mph - N/A   Clear
3:44 PM 28.4 °F 21.2 °F 24.8 °F 86% 30.06 in 10.0 mi NE 6.9 mph - N/A   Mostly Cloudy
3:53 PM 28.9 °F 21.9 °F 24.1 °F 82% 30.16 in 10.0 mi NE 6.9 mph - N/A   Scattered Clouds
4:40 PM 24.8 °F 16.9 °F 23.0 °F 93% 30.07 in 10.0 mi East 6.9 mph - N/A   Mostly Cloudy
4:51 PM 26.6 °F 17.5 °F 24.8 °F 93% 30.08 in 8.0 mi ENE 9.2 mph - N/A   Mostly Cloudy
4:53 PM 27.0 °F 19.5 °F 25.0 °F 92% 30.18 in 8.0 mi ENE 6.9 mph - N/A   Mostly Cloudy
5:03 PM 26.6 °F 17.5 °F 24.8 °F 93% 30.08 in 7.0 mi ENE 9.2 mph - N/A   Overcast
5:53 PM 26.1 °F 19.4 °F 25.0 °F 96% 30.21 in 5.0 mi East 5.8 mph - N/A   Overcast
6:53 PM 25.0 °F 17.1 °F 24.1 °F 96% 30.22 in 3.0 mi ESE 6.9 mph - N/A   Overcast
7:01 PM 24.8 °F 16.1 °F 24.8 °F 100% 30.10 in 2.5 mi ESE 8.1 mph - N/A   Overcast
7:53 PM 25.0 °F 17.1 °F 24.1 °F 96% 30.24 in 1.5 mi SE 6.9 mph - N/A   Overcast
8:09 PM 24.8 °F 16.9 °F 24.8 °F 100% 30.12 in 1.2 mi SE 6.9 mph - N/A   Overcast
8:13 PM 24.8 °F 17.9 °F 24.8 °F 100% 30.12 in 0.8 mi SE 5.8 mph - N/A   Mist
8:38 PM 24.8 °F 19.1 °F 24.8 °F 100% 30.13 in 1.0 mi SE 4.6 mph - N/A   Mist
8:53 PM 25.0 °F 18.1 °F 24.1 °F 96% 30.24 in 1.0 mi South 5.8 mph - N/A   Overcast
9:03 PM 24.8 °F 19.1 °F 24.8 °F 100% 30.12 in 1.2 mi South 4.6 mph - N/A   Overcast
9:10 PM 24.8 °F 19.1 °F 24.8 °F 100% 30.12 in 1.8 mi South 4.6 mph - N/A   Overcast
9:14 PM 24.8 °F 19.1 °F 24.8 °F 100% 30.12 in 3.0 mi South 4.6 mph - N/A   Overcast
9:53 PM 25.0 °F 18.1 °F 24.1 °F 96% 30.24 in 5.0 mi South 5.8 mph - N/A   Overcast
10:53 PM 25.0 °F 18.1 °F 24.1 °F 96% 30.24 in 6.0 mi South 5.8 mph - N/A   Overcast
11:53 PM 25.0 °F 19.3 °F 24.1 °F 96% 30.24 in 4.0 mi SW 4.6 mph - N/A   Overcast